Location: Delettes
(50.6178°N, 2.2123°E)
Time: 16:44:14
(UTC+00:00)

Cosmos 2227 Rocket - Pass Details

Date: 27 February 2020
Orbit: 839 x 845 km, 71.0° (Epoch: 06 April)

Event Time Altitude Azimuth Distance (km) Brightness Sun altitude
Rises 19:56:15 0° 330° (NNW) 3,407 6.1 -24.0°
Reaches altitude 10° 19:58:42 10° 330° (NNW) 2,470 5.2 -24.4°
Maximum altitude 20:04:24 88° 243° (WSW) 850 2.1 -25.3°
Enters shadow 20:05:26 61° 157° (SSE) 951 2.2 -25.4°
